Location: Konakgörmezsa??r
(39.1753°N, 32.3777°E)
Time: 00:43:43
(UTC+00:00)

Daily predictions for brighter satellites

Satellite Brightness Start Highest point End
(mag) Time Altitude Azimuth Time Altitude Azimuth Time Altitude Azimuth
Cosmos 1328 Rocket 3.4 00:06:43 78° SE 00:06:54 81° E 00:11:19 10° N
Cosmos 1943 4.2 00:03:09 10° N 00:08:32 45° ENE 00:13:52 10° SE
CENTAUR R/B 2.5 00:08:14 45° SSE 00:09:31 57° ESE 00:15:43 10° NE
NOSS 2-2 (C) 3.9 00:10:36 41° N 00:10:36 41° N 00:12:46 10° NNE
CRYOSAT 2 4.3 00:11:16 53° SSE 00:12:24 84° E 00:17:18 10° N
Envisat 3.3 00:13:29 10° NNE 00:18:31 62° ESE 00:20:23 37° SSE
COSMOS 2441 4.2 00:16:29 10° N 00:21:16 78° WNW 00:22:12 57° SW
Cosmos 2082 4.0 00:21:51 43° WSW 00:23:13 54° WNW 00:28:44 10° NNE
Okean 2 4.0 00:22:23 37° SE 00:23:17 45° E 00:26:57 10° NNE
Meteor 1-21 4.2 00:22:18 37° S 00:24:38 79° E 00:30:15 10° NNE
Cosmos 1844 Rocket 2.8 00:24:56 38° S 00:27:05 69° ESE 00:32:38 10° NNE
CZ-3 Stage 3 4.4 00:31:31 17° S 00:31:31 17° S 00:36:55 10° SSE
ADEOS II 2.8 00:30:13 10° NNE 00:35:16 48° E 00:38:48 19° SSE
USA 81 3.9 00:30:09 10° N 00:35:25 78° W 00:37:49 33° S
NOSS 2-2 (D) 2.8 00:38:00 74° W 00:38:11 77° WNW 00:41:18 10° NNE
Resurs 1-4 Rocket 2.1 00:35:28 10° NNE 00:40:46 85° ESE 00:43:26 30° S
Cosmos 2084 3.1 00:37:08 10° NW 00:41:15 74° WSW 00:44:43 14° SSE
Atlas Centaur 2 3.4 00:38:39 32° SW 00:41:27 42° S 00:49:01 10° ESE
Cosmos 2344 4.5 00:36:40 15° S 00:43:13 42° ESE 00:49:56 10° NE
Centaur D AC-29 4.3 00:44:27 13° S 00:44:27 13° S 00:47:29 10° SSE
Cosmos 1470 Rocket 3.5 00:40:42 10° N 00:45:04 88° ENE 00:47:35 25° S
Cosmos 1633 Rocket 3.1 00:41:23 10° NNW 00:45:37 57° W 00:46:42 43° SW
BREEZE-M DEB (TANK) 2.8 00:37:30 10° WNW 00:45:41 55° SW 00:48:39 10° SSE
NOSS 3-2 (A) 4.1 00:46:00 18° SSE 00:48:55 35° ESE 00:53:47 10° NE
USA 281 3.1 00:46:36 10° SSE 00:53:10 83° WSW 00:59:47 10° NNW
SL-16 R/B 4.4 00:51:04 10° SE 00:56:29 32° ENE 01:01:55 10° N
Cosmos 2298 Rocket 3.9 00:52:06 10° NNW 00:57:25 77° WSW 01:02:41 10° SSE
BREEZE-M DEB (TANK) 4.5 00:52:28 10° WNW 00:57:40 22° NNW 01:00:22 10° NE
ADEOS Rocket 4.3 00:52:12 10° N 00:58:58 36° WNW 01:02:53 21° WSW
Cosmos 1844 3.7 00:56:37 28° SW 00:59:41 71° WNW 01:05:27 10° NNE
Intercosmos 25 4.3 00:58:58 23° SSW 01:02:11 80° W 01:10:03 10° N
SL-16 R/B 3.4 01:01:08 10° NW 01:05:19 21° W 01:05:31 21° WSW
CZ-4C R/B 4.3 00:59:22 10° NNW 01:06:09 43° NE 01:14:22 10° ESE
Okean 3 3.3 01:04:05 22° S 01:06:37 83° E 01:10:38 10° N
Nadezhda 1 Rocket 4.2 01:00:37 10° S 01:06:40 69° E 01:12:42 10° NNE
USA 307 2.2 01:05:40 28° WNW 01:07:00 53° SW 01:10:41 10° SSE
Cosmos 1953 3.9 01:06:21 10° NW 01:08:11 17° WNW 01:08:11 17° WNW
Tiangong -1.8 01:08:08 21° WNW 01:10:06 66° N 01:13:15 10° E
Cosmos 1900 4.5 01:08:07 10° NNW 01:13:00 76° ENE 01:17:51 10° SE
ATLAS 2AS CENTAUR R/B 2.6 01:07:39 10° NW 01:14:27 83° WSW 01:21:17 10° SSE
Cosmos 1400 Rocket 4.4 01:11:50 10° N 01:15:20 34° ENE 01:18:47 10° SE
CZ-2D R/B 2.4 01:10:28 10° N 01:15:43 52° WNW 01:19:22 20° SW
Intelsat 5-1 Rocket 4.4 01:17:13 10° S 01:18:45 11° SSE 01:20:38 10° SE
H-2A R/B 2.2 01:17:49 18° S 01:20:14 50° W 01:23:44 10° NNW
Cosmos 2150 Rocket 4.5 01:17:41 10° NNW 01:22:46 41° WSW 01:27:49 10° S
Cosmos 1869 Rocket 3.8 01:19:20 10° N 01:23:40 69° E 01:27:57 10° SSE
H-2A R/B 3.3 01:21:28 10° NNE 01:25:09 36° E 01:28:50 10° SSE
ALOS 3.1 01:24:58 10° N 01:29:02 33° WNW 01:31:48 17° WSW
Meteor 1-12 Rocket 4.4 01:26:50 10° NNW 01:32:20 51° W 01:37:45 10° SSW
ARGOS 3.2 01:27:40 10° NNE 01:33:03 84° ESE 01:38:23 10° SSW
H-2A R/B 2.6 01:28:15 10° N 01:33:20 44° WNW 01:37:40 14° SW
NOSS 7 (H) 4.2 01:31:25 10° NW 01:34:24 61° WSW 01:37:51 10° SSE
NOSS 2-2 (E) 4.3 01:35:40 15° W 01:37:41 24° NW 01:40:17 10° N
CZ-2C R/B 3.9 01:33:42 10° NNE 01:37:50 33° E 01:41:55 10° SSE
SL-24 R/B - RUBIN 2 4.0 01:35:54 10° SSW 01:40:40 62° ESE 01:45:05 10° NE
Cosmos 1862 Rocket 4.3 01:41:45 10° S 01:46:03 54° E 01:50:19 10° NNE
Cosmos 2154 Rocket 4.3 01:43:53 10° NNW 01:49:46 45° W 01:55:36 10° SSW
Cosmos 1943 4.2 01:47:51 10° NW 01:52:11 23° W 01:56:30 10° SSW
USA 267 4.4 01:52:45 10° ENE 01:58:49 39° SE 02:04:50 10° SSW
CENTAUR R/B 3.8 01:55:52 10° W 02:00:35 27° NW 02:06:15 10° NNE
Cosmos 1867 4.1 02:04:52 10° NW 02:09:51 37° WSW 02:14:47 10° S
Cosmos 2366 rocket 4.3 02:04:08 10° N 02:10:28 80° E 02:16:49 10° S
Cosmos 1844 Rocket 4.4 02:07:48 10° W 02:11:29 18° NW 02:15:10 10° N
Cosmos 1833 Rocket 3.9 02:06:37 10° NNW 02:12:04 48° ENE 02:17:29 10° SE
